San Antonio Stinson, TX

6:45 AM CDT on March 23, 2017 (GMT -0500)
Stinson Municipal

Weather History for KSSF - December, 2012

Change the Weather History Date:

Wednesday, December 12, 2012

  Actual Average Record
Temperature  
Mean Temperature 45 °F -  
Max Temperature 62 °F 62 °F 79 °F (2004)
Min Temperature 28 °F 39 °F 28 °F (2000)
Degree Days  
Heating Degree Days 20    
Moisture  
Dew Point 23 °F    
Average Humidity 52    
Maximum Humidity 85    
Minimum Humidity 18    
Precipitation  
Precipitation 0.00 in - - ()
Sea Level Pressure  
Sea Level Pressure 30.27 in    
Wind  
Wind Speed 1 mph (SE)    
Max Wind Speed 8 mph    
Max Gust Speed -    
Visibility 10 miles    
Events      
Averages and records for this station are not official NWS values.
T = Trace of Precipitation, MM = Missing Value Source: NWS Daily Summary

Daily Weather History Graph

Daily Weather History Graph

Search for Another Location

Airport or City:

Trip Planner

Search our weather history database for the weather conditions in past years. The results will help you decide how hot, cold, wet, or windy it might be!

Date:

Astronomy

Dec. 12, 2012 Rise Set
Actual Time 7:19 AM CST 5:36 PM CST
Civil Twilight 6:53 AM CST 6:02 PM CST
Nautical Twilight 6:23 AM CST 6:32 PM CST
Astronomical Twilight 5:54 AM CST 7:01 PM CST
Moon 6:26 AM CST (12/12) 5:13 PM CST (12/12)
Length of Visible Light 11h 09m
Length of Day
10h 17m
Waning Crescent, 1% of the Moon is Illuminated
Dec 12
Waning Crescent
Dec 13
New
Dec 19
First Quarter
Dec 28
Full
Jan 4
Last Quarter

Hourly Weather History & Observations

Time (CST) Temp. Dew Point Humidity Pressure Visibility Wind Dir Wind Speed Gust Speed Precip Events Conditions
12:53 AM 32.0 °F 26.1 °F 79% 30.26 in 10.0 mi Calm Calm - N/A   Clear
1:53 AM 32.0 °F 26.1 °F 79% 30.26 in 10.0 mi Calm Calm - N/A   Clear
2:53 AM 30.9 °F 26.1 °F 82% 30.26 in 10.0 mi Calm Calm - N/A   Clear
3:53 AM 30.9 °F 26.1 °F 82% 30.26 in 10.0 mi Calm Calm - N/A   Clear
4:53 AM 30.9 °F 26.1 °F 82% 30.27 in 7.0 mi Calm Calm - N/A   Clear
5:53 AM 30.9 °F 26.1 °F 82% 30.28 in 10.0 mi Calm Calm - N/A   Clear
6:53 AM 28.9 °F 25.0 °F 85% 30.30 in 10.0 mi Calm Calm - N/A   Clear
7:53 AM 30.0 °F 26.1 °F 85% 30.32 in 6.0 mi Calm Calm - N/A   Clear
8:53 AM 39.9 °F 30.9 °F 70% 30.33 in 10.0 mi Calm Calm - N/A   Clear
9:53 AM 46.9 °F 26.1 °F 44% 30.35 in 10.0 mi Calm Calm - N/A   Clear
10:53 AM 51.1 °F 21.0 °F 31% 30.35 in 10.0 mi Variable 3.5 mph - N/A   Clear
11:53 AM 54.0 °F 17.1 °F 23% 30.32 in 10.0 mi Calm Calm - N/A   Clear
12:53 PM 57.9 °F 19.9 °F 23% 30.28 in 10.0 mi ESE 4.6 mph - N/A   Clear
1:53 PM 60.1 °F 19.0 °F 20% 30.25 in 10.0 mi Calm Calm - N/A   Clear
2:53 PM 61.0 °F 18.0 °F 19% 30.23 in 10.0 mi ESE 4.6 mph - N/A   Clear
3:53 PM 62.1 °F 18.0 °F 18% 30.22 in 10.0 mi SE 6.9 mph - N/A   Clear
4:53 PM 60.1 °F 19.0 °F 20% 30.21 in 10.0 mi SE 8.1 mph - N/A   Clear
5:53 PM 55.0 °F 19.9 °F 25% 30.22 in 10.0 mi ESE 4.6 mph - N/A   Clear
6:53 PM 46.9 °F 21.9 °F 37% 30.24 in 10.0 mi Calm Calm - N/A   Clear
7:53 PM 43.0 °F 21.9 °F 43% 30.26 in 10.0 mi Calm Calm - N/A   Clear
8:53 PM 42.1 °F 26.1 °F 53% 30.27 in 10.0 mi Calm Calm - N/A   Clear
9:53 PM 37.9 °F 25.0 °F 60% 30.28 in 10.0 mi Calm Calm - N/A   Clear
10:53 PM 42.1 °F 24.1 °F 49% 30.29 in 10.0 mi Calm Calm - N/A   Clear
11:53 PM 37.9 °F 26.1 °F 62% 30.29 in 10.0 mi Calm Calm - N/A   Clear